GW6324 Weather Reports


time (UTC)temp
F
wind
direction
speed
knots
gust
knots
rain 1hr
in
rain 24hr
in
rain mn
in
humidity
%
barometer
mb
20260507171535 56 77 4.3 11.3 0.00 0.00 0.00 44 1014.5
20260507170033 56 127 1.7 7.0 0.00 0.00 0.00 41 1014.7
20260507164543 55 240 1.7 9.6 0.00 0.00 0.00 47 1014.9
20260507163035 55 292 2.6 10.4 0.00 0.00 0.00 47 1014.9
20260507161536 54 296 1.7 7.0 0.00 0.00 0.00 46 1015.0
20260507160036 54 211 2.6 8.7 0.00 0.00 0.00 45 1015.0
20260507154539 53 243 1.7 6.1 0.00 0.00 0.00 46 1015.0
20260507153035 53 190 2.6 5.2 0.00 0.00 0.00 46 1014.9
20260507151536 52 90 2.6 8.7 0.00 0.00 0.00 47 1014.7
20260507150036 52 274 3.5 9.6 0.00 0.00 0.00 47 1014.8
20260507144535 51 227 1.7 7.0 0.00 0.00 0.00 48 1014.9
20260507143036 52 146 1.7 7.8 0.00 0.00 0.00 48 1015.0
20260507141533 51 77 2.6 7.0 0.00 0.00 0.00 51 1015.0
20260507140043 51 241 3.5 7.8 0.00 0.00 0.00 52 1015.0
20260507134538 49 300 1.7 4.3 0.00 0.00 0.00 52 1015.0
20260507133050 49 246 1.7 7.0 0.00 0.00 0.00 59 1015.0
20260507131545 48 156 0.9 5.2 0.00 0.00 0.00 63 1014.9
20260507130045 48 318 2.6 7.0 0.00 0.00 0.00 65 1014.7
20260507124533 47 268 0.9 2.6 0.00 0.00 0.00 66 1014.7
20260507123036 46 58 0.0 2.6 0.00 0.00 0.00 68 1014.8
20260507121535 46 95 0.0 2.6 0.00 0.00 0.00 71 1014.9
20260507120046 46 85 0.0 1.7 0.00 0.00 0.00 69 1014.9
20260507114602 45 0 0.0 1.7 0.00 0.00 0.00 72 1014.9
20260507113035 44 100 0.0 1.7 0.00 0.00 0.00 74 1014.9
20260507111535 42 261 0.0 1.7 0.00 0.00 0.00 76 1014.7
20260507110030 42 0 0.0 1.7 0.00 0.00 0.00 76 1014.4
20260507104535 43 0 0.0 1.7 0.00 0.00 0.00 76 1014.1
20260507103035 43 246 0.0 1.7 0.00 0.00 0.00 76 1014.1
20260507101533 43 251 0.0 1.7 0.00 0.00 0.00 77 1014.2
20260507100035 43 248 0.0 1.7 0.00 0.00 0.00 77 1014.2
20260507094533 43 269 0.0 1.7 0.00 0.00 0.00 78 1014.2
20260507093035 44 255 0.0 1.7 0.00 0.00 0.00 77 1014.2
20260507091542 44 0 0.0 1.7 0.00 0.00 0.00 77 1014.1
20260507090038 44 255 0.0 2.6 0.00 0.00 0.00 77 1014.1
20260507084536 44 0 0.0 1.7 0.00 0.01 0.00 78 1013.9
20260507083032 45 0 0.0 1.7 0.00 0.01 0.00 79 1013.7
20260507081530 45 0 0.0 1.7 0.00 0.01 0.00 79 1013.7
20260507080036 45 0 0.0 1.7 0.00 0.01 0.00 79 1013.7
20260507074534 45 192 0.0 1.7 0.00 0.08 0.00 78 1013.7
20260507073030 46 0 0.0 1.7 0.00 0.08 0.00 78 1013.8
20260507071530 46 231 0.0 1.7 0.00 0.08 0.00 78 1013.8
20260507070035 46 224 0.0 1.7 0.00 0.08 0.00 77 1013.9
20260507064535 46 0 0.0 1.7 0.00 0.35 0.00 77 1014.0
20260507063035 46 0 0.0 1.7 0.00 0.35 0.00 78 1014.0
20260507061535 47 0 0.0 1.7 0.00 0.35 0.00 77 1014.2
20260507060032 47 0 0.0 1.7 0.00 0.35 0.00 77 1014.0
20260507054537 46 0 0.0 1.7 0.00 0.61 0.00 78 1014.0
20260507053036 46 236 0.9 0.9 0.00 0.61 0.00 80 1014.1
20260507051537 46 0 0.0 1.7 0.00 0.61 0.00 79 1014.0
20260507050034 46 0 0.0 0.0 0.00 0.61 0.00 79 1014.0
20260507044534 46 0 0.0 0.0 0.00 0.70 0.00 79 1014.0
20260507043032 47 0 0.0 0.0 0.00 0.70 0.00 78 1014.1
20260507041533 48 0 0.0 1.7 0.00 0.70 0.00 76 1014.1
20260507040041 48 0 0.0 1.7 0.00 0.70 0.00 75 1014.0
20260507034537 48 0 0.0 1.7 0.00 0.73 0.70 76 1013.9
20260507033034 50 225 0.0 1.7 0.00 0.73 0.70 71 1014.0
20260507031533 50 0 0.0 1.7 0.00 0.73 0.70 70 1014.1
20260507030032 51 0 0.0 0.9 0.00 0.73 0.70 68 1014.0
20260507024536 51 0 0.0 1.7 0.00 0.84 0.70 66 1014.1
20260507023042 52 0 0.0 1.7 0.00 0.84 0.70 64 1014.0
20260507021534 53 0 0.0 1.7 0.00 0.84 0.70 65 1013.9
20260507020048 53 0 0.0 1.7 0.00 0.84 0.70 64 1013.7
20260507014532 54 0 0.0 0.9 0.00 0.97 0.70 62 1013.6
20260507013046 54 0 0.0 1.7 0.00 0.97 0.70 60 1013.6
20260507011536 55 0 0.0 1.7 0.00 0.97 0.70 59 1013.3
20260507010037 55 100 0.0 1.7 0.00 0.97 0.70 58 1013.1
20260507004542 56 193 0.0 1.7 0.00 0.98 0.70 57 1013.2
20260507003042 56 211 0.0 1.7 0.00 0.98 0.70 55 1013.1
20260507001543 57 360 0.0 1.7 0.00 0.98 0.70 55 1013.2
20260507000036 58 263 0.9 4.3 0.00 0.98 0.70 56 1013.0
20260506234538 58 107 0.9 4.3 0.00 0.99 0.70 55 1012.8
20260506233035 59 306 0.9 5.2 0.00 0.99 0.70 52 1012.6
20260506231535 59 271 0.9 4.3 0.00 0.99 0.70 52 1012.6
20260506230040 59 77 1.7 7.0 0.00 0.99 0.70 52 1012.1
20260506224533 59 75 0.9 3.5 0.00 1.00 0.70 53 1012.3
20260506223042 59 64 0.9 4.3 0.00 1.00 0.70 53 1012.3
20260506221534 59 112 0.9 3.5 0.00 1.00 0.70 49 1012.6
20260506220034 60 270 0.9 7.0 0.00 1.00 0.70 52 1012.4
20260506214539 60 108 1.7 4.3 0.00 1.02 0.70 49 1012.7
20260506213035 62 281 0.9 5.2 0.00 1.02 0.70 47 1012.7
20260506211536 62 72 2.6 7.0 0.00 1.02 0.70 50 1012.4
20260506210036 61 112 0.9 7.8 0.00 1.02 0.70 52 1012.4
20260506204534 60 77 2.6 7.8 0.00 1.11 0.70 47 1012.3
20260506203034 60 85 3.5 9.6 0.00 1.11 0.70 46 1012.2
20260506201530 61 262 1.7 7.0 0.00 1.11 0.70 51 1012.3
20260506200035 60 199 0.9 7.0 0.00 1.11 0.70 49 1012.4
20260506194536 60 244 1.7 7.0 0.00 1.30 0.70 50 1012.3
20260506193037 61 77 0.9 7.8 0.00 1.30 0.70 51 1012.2
20260506191535 61 85 2.6 8.7 0.00 1.30 0.70 49 1012.0
20260506190032 61 117 1.7 7.8 0.00 1.30 0.70 55 1011.8
20260506184548 61 74 2.6 8.7 0.00 1.30 0.70 53 1011.9
20260506183050 60 244 2.6 7.0 0.00 1.30 0.70 63 1011.9
20260506181555 59 100 6.1 10.4 0.00 1.30 0.70 52 1012.0
20260506180036 59 285 1.7 9.6 0.00 1.30 0.70 58 1012.0
20260506174534 59 95 3.5 9.6 0.00 1.30 0.70 56 1012.3
20260506173048 57 90 1.7 10.4 0.00 1.30 0.70 59 1012.4